Time,TemperatureF,DewpointF,PressureIn,WindDirection,WindDirectionDegrees,WindSpeedMPH,WindSpeedGustMPH,Humidity,HourlyPrecipIn,Conditions,Clouds,dailyrainin,SoftwareType,DateUTC
2013-02-01 00:09:00,16.2,13.0,29.76,West,270,3.2,-999.0,87,-99.99,,,0.00,Acu-Link.com,2013-02-01 05:09:00,
2013-02-01 00:24:00,15.8,12.4,29.77,ESE,112,5.3,-999.0,86,-99.99,,,0.00,Acu-Link.com,2013-02-01 05:24:00,
2013-02-01 00:40:00,15.8,12.4,29.77,South,180,2.2,-999.0,86,-99.99,,,0.00,Acu-Link.com,2013-02-01 05:40:00,
2013-02-01 00:55:00,16.0,12.6,29.78,West,270,2.2,-999.0,86,-99.99,,,0.00,Acu-Link.com,2013-02-01 05:55:00,
2013-02-01 01:10:00,15.8,12.4,29.78,WNW,292,1.1,-999.0,86,-99.99,,,0.00,Acu-Link.com,2013-02-01 06:10:00,
2013-02-01 01:25:00,15.6,12.4,29.78,WSW,247,1.7,-999.0,87,-99.99,,,0.00,Acu-Link.com,2013-02-01 06:25:00,
2013-02-01 01:40:00,15.8,12.1,29.79,North,0,1.1,-999.0,85,-99.99,,,0.00,Acu-Link.com,2013-02-01 06:40:00,
2013-02-01 01:55:00,15.6,12.2,29.80,SW,225,1.1,-999.0,86,-99.99,,,0.00,Acu-Link.com,2013-02-01 06:55:00,
2013-02-01 02:10:00,15.4,12.0,29.80,West,270,3.2,-999.0,86,-99.99,,,0.00,Acu-Link.com,2013-02-01 07:10:00,
2013-02-01 02:25:00,15.4,12.0,29.81,West,270,2.2,-999.0,86,-99.99,,,0.00,Acu-Link.com,2013-02-01 07:25:00,
2013-02-01 02:40:00,15.4,12.0,29.82,WNW,292,1.7,-999.0,86,-99.99,,,0.00,Acu-Link.com,2013-02-01 07:40:00,
2013-02-01 02:56:00,15.3,11.9,29.82,WSW,247,4.7,-999.0,86,-99.99,,,0.00,Acu-Link.com,2013-02-01 07:56:00,
2013-02-01 03:11:00,15.1,11.7,29.83,WNW,292,1.7,-999.0,86,-99.99,,,0.00,Acu-Link.com,2013-02-01 08:11:00,
2013-02-01 03:26:00,15.1,11.4,29.84,SE,135,3.2,-999.0,85,-99.99,,,0.00,Acu-Link.com,2013-02-01 08:26:00,
2013-02-01 03:41:00,14.9,11.2,29.84,SW,225,1.1,-999.0,85,-99.99,,,0.00,Acu-Link.com,2013-02-01 08:41:00,
2013-02-01 03:56:00,14.9,11.2,29.85,West,270,3.2,-999.0,85,-99.99,,,0.00,Acu-Link.com,2013-02-01 08:56:00,
2013-02-01 04:17:00,14.7,11.0,29.85,WSW,247,2.2,-999.0,85,-99.99,,,0.00,Acu-Link.com,2013-02-01 09:17:00,
2013-02-01 04:32:00,14.7,10.8,29.86,West,270,1.7,-999.0,84,-99.99,,,0.00,Acu-Link.com,2013-02-01 09:32:00,
2013-02-01 04:47:00,14.5,10.6,29.87,North,0,1.7,-999.0,84,-99.99,,,0.00,Acu-Link.com,2013-02-01 09:47:00,
2013-02-01 05:02:00,14.4,10.2,29.88,ESE,112,2.2,-999.0,83,-99.99,,,0.00,Acu-Link.com,2013-02-01 10:02:00,
2013-02-01 05:17:00,14.2,10.0,29.89,South,180,1.1,-999.0,83,-99.99,,,0.00,Acu-Link.com,2013-02-01 10:17:00,
2013-02-01 05:32:00,14.2,10.0,29.89,West,270,3.2,-999.0,83,-99.99,,,0.00,Acu-Link.com,2013-02-01 10:32:00,
2013-02-01 05:47:00,14.0,9.8,29.91,NNW,337,3.7,-999.0,83,-99.99,,,0.00,Acu-Link.com,2013-02-01 10:47:00,
2013-02-01 06:02:00,14.0,9.8,29.91,WSW,247,2.2,-999.0,83,-99.99,,,0.00,Acu-Link.com,2013-02-01 11:02:00,
2013-02-01 06:18:00,14.0,9.8,29.92,SSW,202,1.7,-999.0,83,-99.99,,,0.00,Acu-Link.com,2013-02-01 11:18:00,
2013-02-01 06:33:00,14.0,9.8,29.93,West,270,2.2,-999.0,83,-99.99,,,0.00,Acu-Link.com,2013-02-01 11:33:00,
2013-02-01 06:48:00,14.0,9.5,29.94,SSW,202,2.7,-999.0,82,-99.99,,,0.00,Acu-Link.com,2013-02-01 11:48:00,
2013-02-01 07:03:00,14.0,9.5,29.95,WNW,292,1.7,-999.0,82,-99.99,,,0.00,Acu-Link.com,2013-02-01 12:03:00,
2013-02-01 07:19:00,13.8,9.3,29.96,West,270,2.7,-999.0,82,-99.99,,,0.00,Acu-Link.com,2013-02-01 12:19:00,
2013-02-01 07:34:00,13.8,9.1,29.96,NNE,22,1.7,-999.0,81,-99.99,,,0.00,Acu-Link.com,2013-02-01 12:34:00,
2013-02-01 07:49:00,13.8,9.3,29.98,SSW,202,4.7,-999.0,82,-99.99,,,0.00,Acu-Link.com,2013-02-01 12:49:00,
2013-02-01 08:04:00,14.0,9.5,29.98,SW,225,1.7,-999.0,82,-99.99,,,0.00,Acu-Link.com,2013-02-01 13:04:00,
2013-02-01 08:19:00,14.0,9.3,30.00,South,180,2.7,-999.0,81,-99.99,,,0.00,Acu-Link.com,2013-02-01 13:19:00,
2013-02-01 08:34:00,14.4,9.4,30.00,NW,315,4.7,-999.0,80,-99.99,,,0.00,Acu-Link.com,2013-02-01 13:34:00,
2013-02-01 08:50:00,14.7,9.4,30.01,SW,225,2.7,-999.0,79,-99.99,,,0.00,Acu-Link.com,2013-02-01 13:50:00,
2013-02-01 09:05:00,15.3,9.4,30.02,NNW,337,1.7,-999.0,77,-99.99,,,0.00,Acu-Link.com,2013-02-01 14:05:00,
2013-02-01 09:20:00,16.3,10.4,30.02,East,90,2.2,-999.0,77,-99.99,,,0.00,Acu-Link.com,2013-02-01 14:20:00,
2013-02-01 09:35:00,16.9,9.8,30.03,West,270,3.2,-999.0,73,-99.99,,,0.00,Acu-Link.com,2013-02-01 14:35:00,
2013-02-01 09:50:00,17.1,10.3,30.03,South,180,4.2,-999.0,74,-99.99,,,0.00,Acu-Link.com,2013-02-01 14:50:00,
2013-02-01 10:05:00,17.2,11.5,30.04,West,270,3.7,-999.0,78,-99.99,,,0.00,Acu-Link.com,2013-02-01 15:05:00,
2013-02-01 10:20:00,17.2,11.5,30.04,ESE,112,1.7,-999.0,78,-99.99,,,0.00,Acu-Link.com,2013-02-01 15:20:00,
2013-02-01 10:35:00,18.0,10.8,30.05,WSW,247,2.2,-999.0,73,-99.99,,,0.00,Acu-Link.com,2013-02-01 15:35:00,
2013-02-01 10:50:00,18.0,9.2,30.06,SSW,202,3.2,-999.0,68,-99.99,,,0.00,Acu-Link.com,2013-02-01 15:50:00,
2013-02-01 11:06:00,17.8,10.3,30.06,WSW,247,3.7,-999.0,72,-99.99,,,0.00,Acu-Link.com,2013-02-01 16:06:00,
2013-02-01 11:21:00,18.3,8.2,30.06,SSE,157,3.2,-999.0,64,-99.99,,,0.00,Acu-Link.com,2013-02-01 16:21:00,
2013-02-01 11:36:00,18.7,9.3,30.06,SSE,157,2.2,-999.0,66,-99.99,,,0.00,Acu-Link.com,2013-02-01 16:36:00,
2013-02-01 11:51:00,18.3,8.2,30.07,SE,135,1.7,-999.0,64,-99.99,,,0.00,Acu-Link.com,2013-02-01 16:51:00,
2013-02-01 12:06:00,18.1,9.3,30.07,SW,225,2.7,-999.0,68,-99.99,,,0.00,Acu-Link.com,2013-02-01 17:06:00,
2013-02-01 12:21:00,18.3,11.4,30.07,ENE,67,3.7,-999.0,74,-99.99,,,0.00,Acu-Link.com,2013-02-01 17:21:00,
2013-02-01 12:36:00,18.0,12.3,30.07,NW,315,3.2,-999.0,78,-99.99,,,0.00,Acu-Link.com,2013-02-01 17:36:00,
2013-02-01 12:51:00,18.7,10.6,30.07,NNW,337,1.1,-999.0,70,-99.99,,,0.00,Acu-Link.com,2013-02-01 17:51:00,
2013-02-01 13:06:00,18.9,8.8,30.07,West,270,3.7,-999.0,64,-99.99,,,0.00,Acu-Link.com,2013-02-01 18:06:00,
2013-02-01 13:22:00,18.7,8.9,30.07,ESE,112,2.2,-999.0,65,-99.99,,,0.00,Acu-Link.com,2013-02-01 18:22:00,
2013-02-01 13:37:00,18.7,8.2,30.08,WSW,247,2.7,-999.0,63,-99.99,,,0.00,Acu-Link.com,2013-02-01 18:37:00,
2013-02-01 13:52:00,18.5,8.0,30.08,NNE,22,2.7,-999.0,63,-99.99,,,0.00,Acu-Link.com,2013-02-01 18:52:00,
2013-02-01 14:07:00,18.9,7.0,30.07,SW,225,3.2,-999.0,59,-99.99,,,0.00,Acu-Link.com,2013-02-01 19:07:00,
2013-02-01 14:22:00,18.9,7.7,30.07,NNW,337,6.3,-999.0,61,-99.99,,,0.00,Acu-Link.com,2013-02-01 19:22:00,
2013-02-01 14:37:00,19.0,8.9,30.07,SSE,157,1.7,-999.0,64,-99.99,,,0.00,Acu-Link.com,2013-02-01 19:37:00,
2013-02-01 14:52:00,18.9,8.4,30.07,West,270,3.7,-999.0,63,-99.99,,,0.00,Acu-Link.com,2013-02-01 19:52:00,
2013-02-01 15:07:00,18.7,10.2,30.07,ESE,112,3.7,-999.0,69,-99.99,,,0.00,Acu-Link.com,2013-02-01 20:07:00,
2013-02-01 15:22:00,18.9,8.8,30.07,SW,225,2.2,-999.0,64,-99.99,,,0.00,Acu-Link.com,2013-02-01 20:22:00,
2013-02-01 15:38:00,18.7,8.9,30.08,ESE,112,1.7,-999.0,65,-99.99,,,0.00,Acu-Link.com,2013-02-01 20:38:00,
2013-02-01 15:53:00,18.1,9.0,30.09,ESE,112,3.2,-999.0,67,-99.99,,,0.00,Acu-Link.com,2013-02-01 20:53:00,
2013-02-01 16:08:00,18.1,9.3,30.09,NE,45,1.1,-999.0,68,-99.99,,,0.00,Acu-Link.com,2013-02-01 21:08:00,
2013-02-01 16:23:00,18.1,10.3,30.09,WNW,292,1.7,-999.0,71,-99.99,,,0.00,Acu-Link.com,2013-02-01 21:23:00,
2013-02-01 16:38:00,18.0,11.1,30.09,ESE,112,1.1,-999.0,74,-99.99,,,0.00,Acu-Link.com,2013-02-01 21:38:00,
2013-02-01 16:53:00,17.1,9.3,30.09,East,90,2.7,-999.0,71,-99.99,,,0.00,Acu-Link.com,2013-02-01 21:53:00,
2013-02-01 17:08:00,16.9,7.5,30.08,ENE,67,4.2,-999.0,66,-99.99,,,0.00,Acu-Link.com,2013-02-01 22:08:00,
2013-02-01 17:23:00,16.5,7.2,30.07,NNW,337,4.7,-999.0,66,-99.99,,,0.00,Acu-Link.com,2013-02-01 22:23:00,
2013-02-01 17:38:00,16.2,8.8,30.07,West,270,4.2,-999.0,72,-99.99,,,0.00,Acu-Link.com,2013-02-01 22:38:00,
2013-02-01 17:54:00,15.4,9.5,30.08,NW,315,1.7,-999.0,77,-99.99,,,0.00,Acu-Link.com,2013-02-01 22:54:00,
2013-02-01 18:09:00,15.3,11.1,30.08,NW,315,1.7,-999.0,83,-99.99,,,0.00,Acu-Link.com,2013-02-01 23:09:00,
2013-02-01 18:24:00,15.1,7.7,30.09,South,180,2.2,-999.0,72,-99.99,,,0.00,Acu-Link.com,2013-02-01 23:24:00,
2013-02-01 18:39:00,11.3,4.1,30.09,NE,45,2.2,-999.0,72,-99.99,,,0.00,Acu-Link.com,2013-02-01 23:39:00,
2013-02-01 18:54:00,14.4,5.8,30.09,North,0,4.7,-999.0,68,-99.99,,,0.00,Acu-Link.com,2013-02-01 23:54:00,
2013-02-01 19:09:00,13.8,5.5,30.10,ENE,67,2.2,-999.0,69,-99.99,,,0.00,Acu-Link.com,2013-02-02 00:09:00,
2013-02-01 19:25:00,13.5,5.6,30.10,WNW,292,2.2,-999.0,70,-99.99,,,0.00,Acu-Link.com,2013-02-02 00:25:00,
2013-02-01 19:40:00,12.9,5.6,30.11,West,270,3.7,-999.0,72,-99.99,,,0.00,Acu-Link.com,2013-02-02 00:40:00,
2013-02-01 19:55:00,12.7,5.4,30.10,East,90,1.7,-999.0,72,-99.99,,,0.00,Acu-Link.com,2013-02-02 00:55:00,
2013-02-01 20:10:00,12.7,5.1,30.09,ENE,67,1.7,-999.0,71,-99.99,,,0.00,Acu-Link.com,2013-02-02 01:10:00,
2013-02-01 20:25:00,12.9,6.5,30.10,South,180,3.7,-999.0,75,-99.99,,,0.00,Acu-Link.com,2013-02-02 01:25:00,
2013-02-01 20:40:00,12.6,5.6,30.10,West,270,1.7,-999.0,73,-99.99,,,0.00,Acu-Link.com,2013-02-02 01:40:00,
2013-02-01 20:55:00,12.2,5.2,30.10,West,270,2.7,-999.0,73,-99.99,,,0.00,Acu-Link.com,2013-02-02 01:55:00,
2013-02-01 21:10:00,11.8,4.8,30.09,NE,45,1.7,-999.0,73,-99.99,,,0.00,Acu-Link.com,2013-02-02 02:10:00,
2013-02-01 21:25:00,11.5,4.6,30.09,ESE,112,3.2,-999.0,73,-99.99,,,0.00,Acu-Link.com,2013-02-02 02:25:00,
2013-02-01 21:41:00,11.1,4.2,30.10,SSE,157,2.2,-999.0,73,-99.99,,,0.00,Acu-Link.com,2013-02-02 02:41:00,
2013-02-01 21:56:00,11.3,4.7,30.09,South,180,3.7,-999.0,74,-99.99,,,0.00,Acu-Link.com,2013-02-02 02:56:00,
2013-02-01 22:11:00,11.1,4.2,30.08,North,0,1.7,-999.0,73,-99.99,,,0.00,Acu-Link.com,2013-02-02 03:11:00,
2013-02-01 22:26:00,11.3,4.4,30.07,SE,135,2.2,-999.0,73,-99.99,,,0.00,Acu-Link.com,2013-02-02 03:26:00,
2013-02-01 22:41:00,11.5,4.8,30.08,NE,45,0.0,-999.0,74,-99.99,,,0.00,Acu-Link.com,2013-02-02 03:41:00,
2013-02-01 22:56:00,11.8,5.1,30.07,SW,225,1.7,-999.0,74,-99.99,,,0.00,Acu-Link.com,2013-02-02 03:56:00,
2013-02-01 23:11:00,12.0,5.6,30.06,ENE,67,2.7,-999.0,75,-99.99,,,0.00,Acu-Link.com,2013-02-02 04:11:00,
2013-02-01 23:26:00,12.0,5.6,30.06,East,90,2.2,-999.0,75,-99.99,,,0.00,Acu-Link.com,2013-02-02 04:26:00,
2013-02-01 23:41:00,12.2,5.8,30.06,ESE,112,1.7,-999.0,75,-99.99,,,0.00,Acu-Link.com,2013-02-02 04:41:00,
2013-02-01 23:56:00,12.4,6.0,30.07,NE,45,1.1,-999.0,75,-99.99,,,0.00,Acu-Link.com,2013-02-02 04:56:00,